STARLINK-36462, 67321

Orbit data source: Space-Track

STARLINK-36462, 67321 is a payload satellite owned by SpaceX/Seattle (US) in LEO that was launched on Sun, 04 Jan 2026 UTC via an FALCON 9 launch vehicle from the Air Force Eastern Test Range (AFETR). Payload-class satellites include a variety of spacecraft equipped with specific instruments for various scientific and technological missions. These include communications satellites like Starlink; space stations such as the ISS; scientific satellites like the Hubble; Earth observation satellites from companies like Planet Labs, Umbra, and HawkEye 360; GPS; miniature CubeSats for education and research; and military/defense satellites.

Loading next visibility...
Identifier
67321, 2026-002S
Orbit
LEO
Country
Flag of USUS
Related business
Manufacturer
SpaceX/Seattle
Mission
Operational Commercial Communications
Bus & Motor
STARLINK V2MO, Unknown motor
Mass
575 kg wet, ~530 kg dry
Launch date (UTC)
2026-01-04 (2 months ago)
Launch vehicle
FALCON 9
Launch site
Air Force Eastern Test Range (AFETR)
Object type
Payload
Rocket body
Debris
Shape & HBR
Box + 2 Pan, 17.7 m
Radar Cross Section
36.964 m²

Expand to show TLE details & history
Last TLE update: 23 hours ago

TLE from 23 hours ago
0 STARLINK-36462
1 67321U 26002S   26062.20098000  .00037621  00000-0  13705-2 0  9991
2 67321  43.0021   2.1604 0001551 258.0060 102.0618 15.27560645 10085
Epoch: 2026-03-03T04:49Z
TLE epoch observation values (Epoch: 2026-03-03T04:49:24.672Z)
Latitude
0.00001°
Longitude
128.82417°
Altitude
483.105 km
Speed
7.626 km/s
True Right ascension
00h 08m 38s
True Declination
0° 00' 00"
Sunlit
Object was in daylight at epoch
Visualization orbit readout
Latitude
Unknown
Longitude
Unknown
Altitude
Unknown
Speed
Unknown
Apparent Right ascension
Unknown
Apparent Declination
Unknown
Sunlit
N/A
Visualization observer readout
Local Sidereal Time
07:38:03
Azimuth
Unknown
Elevation
Unknown
Doppler factor
Unknown
Orbital elements
Apogee altitude
486.116 km
Perigee altitude
483.987 km
Semi-major axis
6,863.189 km
Eccentricity
0.00016
Inclination
43.0021°
RAAN
2.1604°
Arg. of periapsis
258.006°
True anomaly
102.07918°
Mean anomaly
102.0618°
Eccentric anomaly
102.07049°
Mean motion
3.81728 °/min
Orbital period
94.31 mins
BSTAR
0.0013705
Loading maneuver chart data...
Computing Atmospheric mass density...
Loading historical data...
Loading historical data...
Loading historical data...
Loading historical data...
Loading historical data...
Loading historical data...
Loading historical data...

Documentation

Showing up to 5 results
|